Location: Pedholt
(56.0260°N, 10.2097°E)
Time: 05:32:53
(UTC+00:00)

Cosmos 220 Rocket - Pass Details

Date: 14 July 2020
Orbit: 576 x 616 km, 74.0° (Epoch: 14 August)

Event Time Altitude Azimuth Distance (km) Brightness Sun altitude
Rises 00:52:09 0° 329° (NNW) 2,836 8.1 -10.2°
Reaches altitude 10° 00:54:25 10° 325° (NW) 1,924 7.1 -10.1°
Maximum altitude 00:58:35 53° 249° (WSW) 722 4.2 -9.9°
Drops below altitude 10° 01:02:41 10° 172° (S) 1,892 6.0 -9.6°
Enters shadow 01:02:52 - 172° (S) 1,964 6.1 -9.6°
